Powrót do katalogu

SATCOM 3 DEB

AktywnyHEO
NORAD 32984·DEBRIS·🇺🇸 United States

Wystrzelony Dec 7, 1979 z Cape Canaveral Space Force Station

Loading…

Następne Przeloty (najbliższe 24 godziny)

TLE

ŚwieżeSource: Space-Track

Epoka: Sep 14, 2026, 12:24 UTC

1 32984U 79101K   26257.51720368 -.00000154  00000-0  00000-0 0  9999
2 32984   9.7674  66.3611 4850501 130.0865 195.1066  1.82640562 91305

Śledź SATCOM 3 DEB w czasie rzeczywistym z AllMySat

Download on the App Store